Temperature
28 27 27 26 29 30 29 30 30 30 29 29 28 28 27 26 25 23 22 22 21 19 20 19 19 19 19 18 18 18 18 18 18 18 18 18 18 18 18 18 18 18 18 18 18 18 18 18 18
28 26 27 29 30 29 29 30 29 30 29 29 28 27 26 25 24 23 22 22 21 20 19 19 19 19 19 18 18 18 18 18 18 18 18 18 18 18 18 18 18 18 18 18 18 18 18 18 18
28 27 29 32 31 29 29 30 30 30 29 28 27 27 26 25 24 23 22 21 20 20 20 20 19 19 18 18 18 18 18 18 18 18 18 18 18 18 18 18 18 18 18 18 18 18 18 18 18
27 30 31 32 30 31 31 31 31 30 29 28 27 26 25 24 23 23 22 22 21 19 19 20 19 19 18 18 18 18 18 18 18 18 18 18 18 18 18 18 18 18 18 18 18 18 18 18 18
29 32 32 31 31 31 32 31 31 30 29 28 26 25 24 24 23 23 22 22 21 20 19 20 19 19 18 18 18 18 18 18 18 18 18 18 18 18 18 18 18 18 18 18 18 18 18 18 18
32 33 32 31 31 32 32 31 31 30 29 28 26 25 24 23 23 23 23 22 22 20 20 20 20 19 19 18 18 18 18 18 18 18 18 18 18 18 18 18 18 18 18 18 18 18 18 18 18
33 33 32 32 31 31 32 31 31 30 30 28 27 25 24 24 23 23 23 22 22 21 20 19 19 19 19 19 19 19 19 18 18 18 18 18 18 18 18 18 18 18 18 18 18 18 18 18 18
34 34 33 32 31 31 32 31 30 30 29 29 28 26 25 24 24 23 23 22 22 21 20 19 19 19 19 19 19 19 19 18 18 18 18 18 18 18 18 18 18 18 18 18 18 18 18 18 18
34 34 33 33 32 32 32 31 30 30 29 29 28 26 25 24 24 23 23 22 22 21 21 20 19 19 19 18 19 18 18 18 18 18 18 18 18 17 18 18 18 18 18 18 18 18 18 18 18
35 33 33 34 34 33 32 32 31 30 29 28 26 25 24 24 24 24 23 22 22 21 21 20 20 19 19 19 19 18 18 18 18 18 18 18 18 18 18 18 18 18 18 18 18 18 18 18 18
35 34 34 34 34 33 33 32 31 31 29 28 26 25 25 24 24 24 23 22 22 21 21 20 20 20 19 19 19 18 18 18 18 18 18 18 18 18 18 18 18 18 18 18 18 18 18 18 18
35 35 35 34 34 33 33 33 32 31 30 28 26 26 25 25 24 24 23 22 21 21 21 21 20 20 19 19 19 19 19 18 18 18 18 18 18 18 18 18 18 18 18 18 18 18 18 18 18
35 35 35 34 33 33 33 33 32 30 29 28 26 26 26 25 25 24 23 22 21 21 20 20 19 19 19 19 19 19 19 19 18 18 18 18 18 18 18 18 18 18 18 18 18 18 18 18 18
35 35 35 34 33 33 32 32 31 30 29 28 27 26 26 25 25 24 23 22 21 21 20 20 19 19 19 19 19 19 19 19 18 18 18 18 18 18 18 18 18 18 18 18 18 18 18 18 18
35 34 34 34 33 32 31 31 31 30 29 28 27 27 26 26 25 24 23 22 21 21 20 20 19 19 19 19 19 19 19 18 18 18 18 18 18 18 18 18 18 18 18 18 18 18 18 18 18
35 33 32 33 34 32 31 29 31 30 30 29 28 27 26 26 25 24 23 22 21 21 20 20 19 19 19 19 19 18 18 18 18 18 18 18 18 18 18 18 18 18 18 18 18 18 18 18 18
34 32 31 33 34 33 31 29 31 31 30 29 29 28 27 26 25 24 23 22 21 21 20 20 20 19 19 19 19 18 18 18 18 18 18 18 17 18 18 18 18 18 18 18 18 18 18 18 18
33 32 32 33 34 34 32 31 32 31 31 30 29 28 27 26 25 24 23 22 21 21 20 20 20 19 19 19 19 18 18 18 18 18 18 18 18 18 18 18 18 18 18 18 18 18 18 18 18
34 33 33 34 35 34 34 33 33 32 32 31 30 29 28 26 25 24 23 23 22 21 20 20 20 20 19 19 19 18 18 18 18 18 18 18 18 18 18 18 18 18 18 18 18 18 18 18 18
34 34 34 34 35 34 34 33 33 33 32 32 30 29 28 27 25 24 23 23 22 21 20 20 20 20 19 19 19 18 18 18 18 18 18 18 18 18 18 18 18 18 18 18 18 18 18 18 18
34 34 34 34 35 35 33 31 31 32 31 31 31 30 29 27 26 25 24 23 22 22 21 20 20 20 20 19 19 19 18 18 18 18 18 18 18 18 18 18 18 18 17 18 18 18 18 18 18
34 35 35 34 33 33 33 29 29 30 30 31 31 30 29 28 26 25 24 23 23 22 21 21 20 20 20 19 19 19 19 18 18 18 18 18 18 18 18 18 18 18 18 17 17 17 17 17 18
35 35 35 35 34 33 32 30 28 29 30 31 32 31 30 29 27 26 24 23 23 22 21 21 20 20 20 20 19 19 19 19 18 18 18 18 18 18 18 18 18 18 17 17 17 17 17 17 17
35 35 34 34 34 31 32 31 28 28 30 31 32 31 30 29 27 26 25 24 23 22 22 21 20 20 20 20 19 19 19 19 18 18 18 18 18 18 18 18 18 18 17 17 17 17 17 17 17
35 33 32 31 32 31 32 32 30 31 32 32 32 31 30 29 27 26 25 24 23 23 22 21 21 20 20 20 19 19 19 19 18 18 18 18 18 18 18 18 18 17 17 17 17 17 17 17 17
34 33 31 30 30 30 32 31 32 33 33 32 32 31 30 29 28 26 25 24 23 23 22 21 21 20 20 20 19 19 19 19 19 18 18 18 18 17 17 17 17 17 17 17 17 17 17 17 17
34 33 34 33 32 31 30 31 32 34 33 33 32 31 30 29 28 27 25 25 24 23 22 22 21 21 20 20 20 19 19 19 18 18 18 18 18 17 17 17 17 17 17 17 17 17 17 17 17
35 34 34 33 31 30 31 31 31 32 32 33 32 31 30 29 28 27 26 25 24 23 22 22 21 21 20 20 19 19 19 19 19 18 18 18 17 17 17 17 17 17 17 17 17 17 16 16 17
33 33 33 33 32 31 30 30 32 31 32 33 32 31 30 29 28 27 26 25 24 24 23 22 21 21 20 20 20 19 19 19 18 18 18 18 17 17 17 17 17 17 17 16 16 16 16 16 16
34 34 33 32 31 32 31 31 33 32 33 33 32 31 30 29 28 27 26 25 25 24 23 22 22 21 21 20 20 19 19 18 18 18 18 18 18 17 17 17 17 16 16 16 16 16 16 16 16
Wind_Speed
8 10 8 6 2 9 17 17 16 16 17 16 17 16 20 18 13 13 11 15 18 18 17 15 13 13 13 13 13 13 13 13 13 13 13 13 14 14 15 15 15 15 16 15 15 15 14 14 14
9 11 9 4 6 13 16 15 16 15 15 16 19 20 20 19 17 15 14 14 16 17 17 15 13 13 13 13 13 13 13 13 13 13 13 13 13 13 14 14 14 15 15 14 14 14 14 14 13
10 13 5 4 13 14 16 15 14 14 14 16 19 18 16 14 16 13 14 15 17 18 18 15 14 13 13 13 13 13 12 12 12 12 12 13 13 13 14 14 14 14 14 14 14 14 13 13 12
7 5 2 11 18 17 15 13 13 14 14 14 15 13 15 15 15 15 14 15 16 17 18 15 14 13 12 12 12 12 12 12 12 12 12 13 13 13 14 14 14 14 13 13 13 13 12 11 10
8 1 8 15 18 16 14 13 14 15 16 18 19 17 17 17 16 15 13 13 16 16 18 16 14 13 13 13 13 12 12 12 12 12 12 12 13 13 13 13 13 13 13 13 12 11 11 10 8
5 2 9 14 17 15 15 14 15 15 16 18 18 18 15 14 13 13 12 12 14 16 17 16 14 13 12 12 12 11 11 11 11 12 12 12 12 12 12 12 12 12 12 11 11 10 9 8 6
3 5 12 17 14 15 15 14 14 14 13 15 16 15 13 13 12 12 11 11 13 15 15 15 15 13 12 12 11 11 11 10 10 10 11 11 11 11 11 11 11 11 10 10 10 9 8 7 5
1 5 13 15 14 15 15 15 14 14 12 12 13 12 14 13 12 12 11 10 11 12 12 11 14 14 13 12 11 10 10 9 9 9 9 9 10 11 11 11 10 9 9 8 8 8 7 6 4
4 5 12 15 14 15 15 15 15 13 14 16 16 18 16 15 13 12 11 10 9 9 9 9 10 10 11 12 12 10 10 9 8 8 8 8 7 9 9 10 9 8 8 7 7 7 7 6 5
6 9 15 15 15 14 14 14 15 13 14 17 18 18 16 14 12 11 10 10 9 8 8 8 8 7 7 8 10 8 7 8 6 6 7 7 5 7 9 10 9 8 7 7 7 8 7 7 6
11 13 15 15 14 13 13 13 14 13 14 16 18 17 15 13 11 10 10 10 9 7 7 9 8 5 5 5 6 5 6 6 5 5 4 5 6 7 8 8 8 8 8 6 7 8 8 7 4
12 12 12 13 12 12 12 13 14 15 16 18 17 16 14 13 11 10 10 10 8 6 6 7 8 5 5 4 3 4 4 4 4 4 2 4 3 3 4 4 6 6 5 4 4 4 4 3 2
10 11 11 11 11 10 11 14 16 17 18 18 17 15 13 12 11 10 10 9 8 6 6 7 7 6 4 4 3 2 3 4 5 5 3 3 2 2 2 1 1 1 3 4 2 1 1 1 1
7 8 10 12 11 9 9 10 14 17 17 17 15 13 12 12 11 10 10 9 8 7 6 6 6 6 4 2 1 2 2 4 4 4 4 2 2 3 2 0 0 1 2 3 1 1 1 0 0
5 6 6 10 11 11 7 8 12 15 17 16 14 12 12 11 11 10 9 8 8 7 6 5 5 5 4 2 1 1 1 3 3 4 4 2 2 2 1 1 1 1 1 2 2 1 2 2 2
6 5 4 5 9 12 7 6 10 14 15 14 13 13 12 10 10 10 10 8 8 7 6 4 4 6 5 2 1 1 0 3 3 3 3 1 1 1 1 1 1 1 1 2 1 2 1 1 2
7 6 7 6 8 11 8 9 11 13 15 14 13 13 13 11 10 10 10 9 8 7 6 5 4 5 5 4 3 1 1 1 1 2 2 2 1 1 1 1 0 2 2 1 2 1 1 2 2
4 6 8 7 8 7 10 12 14 13 13 14 14 13 13 12 10 11 10 10 8 7 6 5 4 4 4 3 2 1 1 1 2 2 2 2 2 2 1 2 2 3 1 1 1 2 2 2 3
6 5 5 5 5 3 7 11 13 13 12 13 13 13 13 12 11 11 10 10 9 7 6 5 4 4 3 2 2 2 2 3 2 3 4 4 4 2 1 2 1 2 1 2 2 2 3 3 3
6 4 4 5 5 4 3 6 7 9 8 11 13 12 13 13 12 11 10 10 9 8 7 6 5 5 4 3 2 2 2 2 2 1 2 3 3 3 3 2 2 2 2 2 2 2 2 3 2
8 4 2 3 5 6 2 2 3 5 6 8 11 12 13 14 14 13 11 9 9 9 7 6 5 5 4 3 2 1 2 0 0 1 1 2 3 3 2 2 2 2 2 2 3 2 3 3 3
8 4 3 4 6 4 4 2 3 5 8 9 10 11 13 13 14 13 12 10 9 8 8 7 6 4 4 3 2 2 2 1 1 1 1 1 2 2 3 2 3 3 2 2 3 3 3 3 3
6 4 6 9 8 5 3 3 3 5 7 10 11 10 11 13 14 13 12 10 9 9 9 8 7 5 4 3 2 1 0 1 0 1 1 1 1 2 2 2 2 2 3 3 3 2 2 2 3
7 6 9 11 10 8 5 3 4 5 6 8 10 11 10 13 14 13 12 11 9 9 9 9 7 5 5 4 3 1 0 1 1 1 0 1 0 1 1 1 1 2 2 2 3 2 2 3 3
10 9 7 8 7 6 5 2 5 8 9 10 10 12 12 13 14 14 13 12 10 9 9 9 8 6 5 4 3 2 1 0 1 1 1 1 1 1 1 0 0 1 1 2 2 1 2 3 3
12 13 11 7 4 3 4 0 4 9 11 11 11 11 12 14 14 14 13 12 11 10 9 9 9 7 6 5 3 2 2 1 0 0 1 1 2 1 1 1 1 1 1 1 1 1 2 1 2
13 14 16 13 10 4 3 3 5 10 11 12 13 12 11 13 14 14 14 13 12 10 9 9 9 7 6 5 4 3 2 1 1 2 1 1 2 1 2 2 1 2 2 2 1 1 2 1 1
15 13 9 9 7 6 4 7 6 9 11 12 12 13 12 12 13 13 13 13 12 11 10 9 9 8 6 5 4 4 3 2 1 1 1 2 2 3 3 3 2 2 2 2 1 1 2 1 1
16 16 11 8 8 7 3 0 6 6 8 11 11 13 13 13 12 12 11 12 12 12 12 10 9 8 7 6 5 3 3 3 2 1 1 2 2 2 2 2 3 3 3 3 3 2 2 3 3
16 17 14 10 7 7 6 3 9 8 8 10 11 10 11 12 12 11 12 11 11 11 11 10 10 9 8 6 6 5 3 2 2 2 2 2 2 2 2 2 3 3 3 3 3 3 4 4 3
Wind_Direction
231 233 231 248 187 76 72 69 70 69 67 61 60 68 60 59 76 92 104 100 103 106 105 95 87 87 87 86 83 82 81 81 81 82 83 85 86 87 89 91 93 96 97 97 98 98 97 99 101
250 241 236 241 84 80 78 75 72 71 75 77 72 74 73 73 84 97 101 101 103 104 101 95 93 89 88 88 86 84 83 83 83 83 85 87 88 88 90 93 95 97 99 100 100 98 98 101 105
256 253 264 84 74 77 81 80 82 81 81 83 77 68 69 85 90 103 112 107 99 98 99 99 96 93 91 89 86 85 85 84 84 84 87 89 89 90 91 95 96 97 99 100 101 99 99 101 106
259 244 124 82 80 78 83 90 92 90 86 86 87 79 71 84 100 110 114 111 111 112 107 104 100 96 94 93 90 89 88 86 85 86 88 91 91 91 93 95 98 98 100 102 102 101 101 102 107
248 257 90 86 84 84 84 87 86 84 84 84 87 91 88 92 105 110 113 114 113 111 112 111 106 100 96 95 93 91 90 88 89 91 92 93 93 93 95 97 98 99 100 102 103 103 104 106 107
258 119 91 88 88 88 87 88 88 91 97 100 99 100 100 111 115 117 117 113 114 115 114 118 115 110 104 100 98 96 95 94 95 96 98 99 99 99 99 100 101 101 101 103 107 108 109 111 113
278 91 98 97 94 90 89 90 89 91 95 105 114 110 118 121 120 116 109 108 110 112 120 131 131 124 119 112 108 106 104 104 104 105 104 107 108 108 107 106 105 105 105 108 112 114 117 121 125
72 93 97 97 98 94 91 90 91 94 91 108 121 115 126 128 126 116 113 108 105 110 117 130 132 134 136 129 125 122 120 119 119 120 121 123 123 123 122 117 112 113 114 117 123 123 128 138 148
87 85 92 98 101 102 102 100 97 94 89 77 86 110 124 132 127 126 120 108 98 99 110 121 119 134 138 137 136 142 141 140 143 145 148 153 156 139 135 118 126 128 131 135 139 142 147 158 179
94 90 88 94 101 106 109 112 114 109 100 96 99 111 126 132 132 131 127 120 112 110 118 105 108 115 120 121 137 149 149 151 170 144 166 177 154 139 126 134 142 147 153 158 164 166 173 192 194
92 91 94 99 105 109 110 114 119 117 116 120 124 130 136 135 136 131 123 119 118 122 109 106 96 98 95 109 138 137 130 151 162 147 155 137 133 134 137 152 161 171 176 185 175 189 201 213 210
97 95 99 103 111 111 108 103 97 98 109 122 129 135 139 144 139 132 123 120 123 118 113 107 103 86 57 64 91 128 132 143 127 124 125 114 122 128 137 160 169 178 179 175 169 193 190 173 138
104 110 112 112 102 95 97 100 101 104 112 122 132 139 145 140 135 127 121 121 123 120 108 94 99 96 74 48 357 86 96 100 100 100 69 74 112 102 107 80 111 172 162 159 165 156 129 151 186
115 122 122 117 112 108 100 106 111 117 123 130 138 146 144 136 134 128 128 129 132 135 128 123 119 114 114 109 29 18 73 91 103 110 102 58 60 90 97 129 175 192 138 135 161 168 176 190 307
135 126 122 134 135 116 105 116 122 132 136 141 146 147 139 136 134 136 136 140 142 138 132 136 136 128 139 145 172 187 154 118 101 101 109 94 76 89 131 183 232 227 174 154 176 228 218 202 205
171 163 158 161 141 132 139 132 142 147 146 149 152 148 144 139 145 143 138 141 142 140 140 154 153 142 154 161 181 229 148 94 102 104 116 121 113 134 249 217 227 269 237 186 187 225 244 241 221
192 176 184 182 155 142 147 156 167 163 156 157 159 155 153 153 155 145 144 147 142 139 144 149 137 143 160 165 177 188 117 86 157 154 147 162 207 220 247 267 237 261 267 237 234 180 227 262 267
230 184 192 182 153 156 154 158 161 167 167 163 163 161 158 161 160 149 148 147 142 141 143 148 146 151 157 163 177 196 187 208 225 184 162 187 232 233 262 246 236 262 260 258 249 223 230 244 251
261 197 193 146 150 187 159 156 158 166 171 162 164 165 163 161 156 150 152 152 151 147 151 156 158 152 164 176 188 194 201 215 218 210 190 200 220 232 245 285 255 268 264 252 249 233 238 241 228
241 222 198 149 152 224 176 132 152 160 173 164 163 160 161 156 154 155 156 160 159 155 161 159 162 165 181 177 189 196 196 206 198 215 163 199 208 216 229 226 250 254 259 257 264 248 247 264 240
239 232 223 192 210 222 188 139 146 161 183 170 160 164 163 162 159 159 164 166 163 158 159 156 156 154 168 169 184 193 163 236 170 185 190 214 210 207 241 240 254 265 252 244 253 247 238 245 264
247 254 263 253 254 251 228 177 243 185 195 183 170 168 163 162 159 160 162 164 159 155 151 140 144 144 154 169 196 206 183 191 207 195 167 206 216 216 229 234 242 257 262 251 255 228 240 239 251
261 299 279 267 265 259 217 161 200 172 203 184 167 156 158 154 154 155 156 155 155 157 151 146 142 145 149 158 167 198 236 198 193 124 131 223 220 219 226 229 240 247 256 259 266 278 261 253 254
252 258 268 268 269 261 242 209 154 169 193 166 152 148 155 148 147 147 148 145 152 154 150 145 141 141 147 156 158 159 238 13 25 28 61 260 220 234 226 225 229 243 251 267 264 262 259 259 263
234 241 247 246 240 252 251 220 156 163 159 150 148 150 152 146 145 146 148 150 156 155 149 142 141 144 148 150 154 157 168 159 12 328 307 326 13 42 13 350 281 282 269 269 269 265 261 264 261
221 241 250 262 276 260 280 210 144 133 130 139 139 142 147 146 147 148 150 154 158 156 151 143 142 145 150 153 154 143 139 188 215 264 345 15 15 46 16 22 12 332 309 302 297 299 274 274 273
232 232 253 262 262 242 196 154 141 143 143 143 141 140 146 148 149 152 156 159 158 156 150 144 141 144 148 151 147 138 134 122 48 80 40 33 18 19 41 35 25 6 357 347 15 357 339 355 322
248 249 254 261 286 283 220 190 177 163 152 148 147 147 146 148 151 154 157 157 154 153 145 142 141 145 148 152 158 153 147 146 128 74 59 44 41 32 40 27 28 27 18 13 16 24 4 12 2
224 242 254 265 266 272 275 36 125 143 166 154 152 148 148 152 150 150 150 147 149 151 152 151 149 150 152 151 143 137 142 152 145 118 87 68 56 50 32 21 23 34 35 26 30 34 27 30 23
229 230 234 243 257 277 275 157 136 158 172 151 145 142 147 146 145 148 147 145 150 154 154 154 156 157 158 152 144 144 142 136 128 112 87 81 82 74 56 49 38 37 49 48 49 42 41 37 30
Height
1487 1486 1486 1489 1487 1490 1498 1496 1494 1496 1499 1502 1502 1504 1509 1511 1517 1532 1534 1534 1536 1535 1536 1536 1537 1537 1538 1538 1539 1539 1540 1540 1541 1541 1542 1542 1543 1543 1544 1544 1545 1546 1547 1548 1549 1550 1551 1552 1553
1486 1487 1490 1488 1489 1504 1506 1498 1499 1500 1502 1504 1506 1510 1514 1519 1524 1530 1534 1537 1538 1538 1538 1538 1539 1539 1540 1540 1541 1542 1542 1543 1543 1544 1544 1545 1545 1546 1546 1547 1548 1548 1549 1550 1551 1552 1553 1554 1555
1487 1488 1490 1484 1492 1503 1506 1500 1500 1502 1505 1507 1511 1515 1520 1525 1529 1533 1537 1539 1539 1539 1539 1540 1540 1541 1542 1542 1543 1544 1545 1545 1545 1546 1546 1547 1548 1548 1549 1549 1550 1551 1552 1552 1553 1554 1555 1556 1557
1489 1488 1487 1487 1498 1496 1498 1499 1501 1503 1506 1509 1513 1520 1526 1529 1533 1536 1539 1540 1541 1541 1541 1542 1542 1543 1544 1544 1545 1546 1547 1547 1548 1548 1549 1549 1550 1550 1551 1552 1552 1553 1554 1555 1555 1556 1557 1558 1559
1491 1486 1487 1494 1497 1496 1497 1500 1502 1505 1509 1514 1519 1525 1531 1534 1536 1538 1541 1542 1543 1544 1543 1544 1544 1545 1546 1547 1547 1548 1549 1549 1550 1550 1551 1551 1552 1553 1553 1554 1555 1555 1556 1557 1557 1558 1559 1560 1561
1489 1483 1493 1501 1501 1498 1499 1502 1505 1509 1513 1517 1523 1528 1534 1538 1539 1541 1542 1544 1545 1545 1545 1546 1546 1547 1548 1549 1549 1550 1551 1551 1552 1552 1553 1553 1554 1555 1555 1556 1557 1557 1558 1559 1559 1560 1561 1562 1563
1487 1484 1492 1497 1502 1501 1501 1504 1507 1510 1513 1517 1523 1529 1535 1539 1541 1542 1544 1546 1547 1547 1547 1547 1548 1549 1550 1551 1551 1552 1553 1553 1554 1554 1555 1556 1556 1557 1557 1558 1558 1559 1560 1561 1561 1562 1563 1563 1564
1484 1483 1491 1495 1503 1504 1503 1506 1510 1513 1516 1519 1521 1528 1535 1540 1542 1544 1546 1548 1549 1550 1550 1550 1551 1551 1552 1553 1553 1554 1554 1555 1556 1556 1557 1558 1558 1559 1559 1560 1560 1561 1562 1562 1563 1564 1565 1565 1566
1484 1487 1494 1496 1501 1503 1504 1508 1512 1516 1518 1521 1524 1529 1536 1540 1543 1545 1547 1549 1551 1552 1552 1553 1553 1554 1555 1555 1555 1556 1556 1557 1558 1558 1559 1559 1560 1561 1561 1562 1563 1563 1564 1565 1565 1566 1567 1567 1568
1484 1491 1493 1492 1496 1500 1504 1508 1512 1517 1521 1526 1530 1535 1538 1541 1544 1546 1548 1550 1552 1553 1554 1555 1555 1556 1557 1558 1557 1557 1558 1559 1559 1560 1561 1561 1562 1563 1564 1564 1564 1565 1566 1566 1567 1568 1568 1569 1570
1485 1489 1490 1493 1497 1501 1503 1506 1510 1514 1520 1527 1532 1536 1540 1543 1545 1547 1549 1551 1552 1554 1555 1555 1556 1557 1558 1559 1559 1560 1560 1560 1561 1562 1562 1563 1563 1564 1565 1565 1565 1566 1567 1567 1568 1569 1569 1570 1572
1487 1490 1492 1495 1499 1501 1503 1506 1510 1515 1521 1528 1533 1536 1540 1542 1545 1547 1549 1551 1553 1554 1555 1556 1556 1557 1558 1559 1560 1561 1562 1562 1563 1562 1563 1564 1565 1565 1566 1566 1566 1567 1568 1568 1569 1570 1571 1572 1573
1489 1492 1495 1497 1500 1503 1505 1508 1513 1519 1524 1529 1534 1537 1540 1543 1545 1548 1550 1552 1553 1554 1555 1556 1556 1557 1558 1559 1560 1562 1562 1563 1563 1563 1564 1564 1565 1566 1566 1567 1567 1568 1569 1569 1570 1571 1572 1572 1573
1491 1493 1495 1498 1502 1505 1509 1512 1516 1521 1526 1531 1535 1538 1540 1543 1546 1548 1550 1552 1553 1555 1555 1556 1556 1557 1558 1559 1560 1561 1562 1563 1563 1563 1564 1564 1565 1565 1566 1567 1567 1568 1569 1570 1570 1571 1572 1572 1573
1493 1495 1498 1498 1501 1506 1512 1515 1517 1522 1526 1530 1534 1537 1540 1543 1546 1549 1551 1552 1553 1554 1555 1556 1556 1557 1557 1559 1560 1561 1562 1563 1563 1563 1563 1564 1564 1565 1565 1566 1567 1568 1569 1570 1570 1571 1571 1572 1572
1494 1500 1509 1501 1500 1505 1514 1525 1517 1521 1525 1529 1532 1536 1540 1544 1546 1549 1550 1552 1553 1554 1555 1556 1557 1556 1557 1558 1559 1560 1561 1562 1563 1563 1563 1563 1564 1564 1565 1566 1566 1567 1568 1569 1569 1570 1571 1571 1572
1497 1509 1511 1503 1497 1501 1510 1520 1516 1519 1522 1526 1530 1534 1538 1543 1545 1548 1550 1551 1553 1554 1554 1555 1556 1556 1557 1557 1558 1559 1560 1561 1561 1562 1563 1563 1563 1563 1564 1565 1565 1566 1567 1568 1569 1569 1569 1570 1571
1508 1508 1507 1502 1495 1497 1505 1511 1512 1515 1518 1522 1526 1531 1536 1540 1544 1547 1549 1551 1552 1553 1554 1554 1555 1556 1556 1557 1558 1558 1559 1559 1560 1561 1561 1562 1562 1563 1563 1564 1564 1565 1566 1566 1567 1567 1568 1568 1569
1495 1500 1504 1497 1493 1496 1500 1504 1506 1510 1514 1518 1523 1528 1533 1538 1542 1545 1548 1550 1551 1552 1553 1554 1554 1555 1556 1556 1557 1557 1558 1559 1559 1560 1560 1561 1561 1561 1562 1562 1563 1563 1564 1564 1565 1566 1566 1567 1568
1493 1498 1499 1494 1492 1495 1499 1503 1503 1507 1512 1515 1520 1525 1530 1535 1539 1543 1546 1548 1550 1550 1552 1553 1553 1554 1555 1555 1556 1557 1557 1558 1558 1559 1559 1559 1559 1560 1560 1561 1561 1562 1562 1562 1563 1564 1564 1565 1566
1493 1496 1498 1499 1493 1493 1499 1512 1509 1510 1512 1515 1518 1522 1527 1531 1536 1540 1544 1547 1549 1550 1551 1552 1553 1553 1554 1555 1555 1556 1557 1557 1557 1558 1558 1558 1558 1558 1559 1559 1560 1560 1560 1561 1561 1562 1562 1563 1564
1497 1488 1491 1495 1502 1507 1504 1531 1521 1513 1513 1514 1516 1520 1524 1529 1534 1538 1542 1545 1547 1549 1550 1551 1552 1553 1553 1554 1554 1555 1556 1556 1557 1557 1557 1557 1557 1557 1557 1557 1558 1558 1558 1559 1559 1560 1560 1561 1561
1491 1487 1490 1492 1498 1507 1506 1523 1529 1515 1516 1512 1512 1517 1522 1527 1531 1536 1540 1543 1546 1548 1549 1550 1551 1552 1552 1553 1554 1554 1555 1556 1556 1556 1556 1556 1556 1556 1556 1556 1556 1556 1556 1557 1557 1558 1558 1559 1560
1488 1492 1494 1493 1497 1518 1510 1517 1531 1519 1512 1509 1510 1515 1520 1525 1530 1535 1539 1542 1545 1548 1549 1550 1550 1551 1552 1553 1553 1554 1554 1555 1555 1555 1555 1555 1555 1555 1555 1555 1554 1554 1555 1555 1555 1556 1556 1557 1557
1491 1504 1519 1522 1520 1521 1503 1509 1518 1503 1501 1504 1509 1513 1518 1523 1528 1533 1538 1541 1544 1547 1548 1549 1550 1550 1551 1552 1553 1553 1554 1554 1554 1554 1555 1555 1554 1554 1554 1553 1553 1553 1553 1553 1554 1554 1554 1555 1555
1494 1500 1520 1533 1533 1524 1508 1513 1504 1494 1499 1503 1507 1513 1518 1523 1528 1532 1536 1540 1543 1545 1547 1548 1549 1550 1551 1552 1552 1553 1553 1554 1554 1554 1554 1554 1553 1553 1553 1552 1552 1552 1552 1552 1552 1552 1553 1553 1553
1493 1496 1490 1503 1510 1522 1520 1511 1502 1494 1497 1502 1507 1512 1517 1522 1527 1531 1535 1539 1542 1544 1546 1548 1548 1550 1551 1551 1552 1552 1553 1553 1553 1553 1553 1553 1553 1553 1552 1551 1551 1551 1551 1551 1551 1551 1551 1552 1552
1486 1487 1493 1505 1523 1531 1521 1515 1512 1502 1499 1501 1506 1511 1517 1521 1526 1530 1534 1537 1541 1543 1546 1547 1548 1549 1550 1551 1552 1552 1552 1552 1553 1552 1552 1552 1552 1552 1551 1551 1550 1550 1550 1550 1550 1550 1550 1550 1550
1491 1493 1494 1497 1503 1522 1532 1525 1498 1500 1499 1501 1505 1510 1516 1520 1524 1529 1533 1536 1540 1542 1545 1546 1547 1549 1550 1550 1551 1552 1552 1552 1552 1552 1552 1551 1551 1551 1551 1550 1550 1550 1550 1549 1549 1549 1549 1549 1549
1482 1487 1492 1508 1510 1506 1516 1517 1494 1497 1497 1500 1505 1510 1515 1519 1524 1528 1532 1536 1539 1542 1544 1545 1547 1548 1549 1550 1550 1551 1552 1552 1552 1551 1551 1551 1551 1550 1550 1550 1549 1549 1549 1549 1548 1548 1548 1548 1548